TimeEDT,TemperatureF,Dew PointF,Humidity,Sea Level PressureIn,VisibilityMPH,Wind Direction,Wind SpeedMPH,Gust SpeedMPH,PrecipitationIn,Events,Conditions,WindDirDegrees,DateUTC
12:15 AM,78.8,69.8,74,30.01,10.0,Calm,Calm,-,N/A,,Overcast,0,2013-07-27 04:15:00
12:35 AM,78.8,69.8,74,30.01,10.0,Calm,Calm,-,N/A,,Overcast,0,2013-07-27 04:35:00
12:55 AM,78.8,71.6,78,30.01,10.0,Calm,Calm,-,N/A,,Overcast,0,2013-07-27 04:55:00
1:15 AM,78.8,71.6,78,30.01,10.0,Calm,Calm,-,N/A,,Mostly Cloudy,0,2013-07-27 05:15:00
1:35 AM,78.8,69.8,74,30.01,10.0,Calm,Calm,-,N/A,,Mostly Cloudy,0,2013-07-27 05:35:00
1:55 AM,77.0,69.8,78,30.00,10.0,Calm,Calm,-,N/A,,Partly Cloudy,0,2013-07-27 05:55:00
2:15 AM,77.0,69.8,78,29.99,10.0,Calm,Calm,-,N/A,,Clear,0,2013-07-27 06:15:00
2:35 AM,75.2,69.8,83,29.98,10.0,Calm,Calm,-,N/A,,Clear,0,2013-07-27 06:35:00
2:55 AM,75.2,69.8,83,29.97,9.0,Calm,Calm,-,N/A,,Clear,0,2013-07-27 06:55:00
3:15 AM,75.2,69.8,83,29.97,8.0,Calm,Calm,-,N/A,,Clear,0,2013-07-27 07:15:00
3:35 AM,75.2,69.8,83,29.97,6.0,Calm,Calm,-,N/A,,Clear,0,2013-07-27 07:35:00
3:55 AM,75.2,69.8,83,29.96,5.0,Calm,Calm,-,N/A,,Clear,0,2013-07-27 07:55:00
4:15 AM,73.4,69.8,88,29.96,5.0,Calm,Calm,-,N/A,,Clear,0,2013-07-27 08:15:00
4:35 AM,73.4,69.8,88,29.97,5.0,North,3.5,-,N/A,,Clear,360,2013-07-27 08:35:00
4:55 AM,73.4,69.8,88,29.97,5.0,Calm,Calm,-,N/A,,Clear,0,2013-07-27 08:55:00
5:15 AM,73.4,69.8,88,29.97,5.0,Calm,Calm,-,N/A,,Clear,0,2013-07-27 09:15:00
5:35 AM,73.4,69.8,88,29.96,5.0,Calm,Calm,-,N/A,,Clear,0,2013-07-27 09:35:00
5:55 AM,73.4,69.8,88,29.97,3.0,Calm,Calm,-,N/A,,Clear,0,2013-07-27 09:55:00
6:15 AM,73.4,69.8,88,29.97,4.0,Calm,Calm,-,N/A,,Clear,0,2013-07-27 10:15:00
6:35 AM,73.4,69.8,88,29.97,4.0,Calm,Calm,-,N/A,,Clear,0,2013-07-27 10:35:00
6:50 AM,73.4,69.8,88,29.98,4.0,Calm,Calm,-,N/A,,Clear,0,2013-07-27 10:50:00
7:10 AM,73.4,69.8,88,29.98,2.0,Calm,Calm,-,N/A,,Clear,0,2013-07-27 11:10:00
7:50 AM,75.2,69.8,83,29.99,3.0,Calm,Calm,-,N/A,,Clear,0,2013-07-27 11:50:00
8:50 AM,78.8,71.6,78,30.01,7.0,Calm,Calm,-,N/A,,Partly Cloudy,0,2013-07-27 12:50:00
9:50 AM,82.4,73.4,74,30.01,7.0,Calm,Calm,-,N/A,,Mostly Cloudy,0,2013-07-27 13:50:00
10:50 AM,84.2,73.4,70,30.00,7.0,NW,9.2,-,N/A,,Mostly Cloudy,310,2013-07-27 14:50:00
12:50 PM,89.6,71.6,55,29.97,10.0,WNW,5.8,-,N/A,,Mostly Cloudy,290,2013-07-27 16:50:00
1:50 PM,91.4,68.0,46,29.96,10.0,WNW,5.8,-,N/A,,Scattered Clouds,290,2013-07-27 17:50:00
2:50 PM,89.6,69.8,52,29.94,10.0,West,9.2,-,N/A,,Scattered Clouds,270,2013-07-27 18:50:00
3:50 PM,91.4,68.0,46,29.92,10.0,WNW,6.9,-,N/A,,Partly Cloudy,290,2013-07-27 19:50:00
4:50 PM,91.4,66.2,43,29.91,10.0,WNW,6.9,-,N/A,,Clear,290,2013-07-27 20:50:00
5:50 PM,91.4,68.0,46,29.92,10.0,West,10.4,-,N/A,,Partly Cloudy,260,2013-07-27 21:50:00
6:50 PM,87.8,66.2,49,29.94,10.0,West,4.6,-,N/A,,Clear,270,2013-07-27 22:50:00
7:55 PM,84.2,66.2,55,29.95,10.0,SW,5.8,-,N/A,,Clear,230,2013-07-27 23:55:00
8:15 PM,82.4,68.0,62,29.95,10.0,WSW,6.9,-,N/A,,Clear,240,2013-07-28 00:15:00
8:35 PM,82.4,69.8,66,29.95,10.0,WSW,5.8,-,N/A,,Clear,250,2013-07-28 00:35:00
8:55 PM,80.6,69.8,70,29.96,10.0,West,4.6,-,N/A,,Clear,260,2013-07-28 00:55:00
9:15 PM,80.6,69.8,70,29.96,10.0,WSW,3.5,-,N/A,,Clear,250,2013-07-28 01:15:00
9:35 PM,78.8,69.8,74,29.97,10.0,WSW,3.5,-,N/A,,Clear,250,2013-07-28 01:35:00
9:55 PM,78.8,68.0,69,29.97,10.0,Calm,Calm,-,N/A,,Clear,0,2013-07-28 01:55:00
10:15 PM,75.2,68.0,78,29.97,10.0,Calm,Calm,-,N/A,,Clear,0,2013-07-28 02:15:00
10:35 PM,75.2,68.0,78,29.97,10.0,Calm,Calm,-,N/A,,Clear,0,2013-07-28 02:35:00
10:55 PM,75.2,68.0,78,29.97,10.0,SSW,3.5,-,N/A,,Clear,210,2013-07-28 02:55:00
11:15 PM,75.2,68.0,78,29.97,10.0,Calm,Calm,-,N/A,,Clear,0,2013-07-28 03:15:00
11:35 PM,75.2,68.0,78,29.97,10.0,Calm,Calm,-,N/A,,Clear,0,2013-07-28 03:35:00
11:55 PM,73.4,68.0,83,29.97,10.0,Calm,Calm,-,N/A,,Clear,0,2013-07-28 03:55:00